This is the latest recevied weather packets stored in our database for station/object N3FWE. If no packets are shown the sender has not sent any weather packets the latest 10 day(s).
| Time | Temp. | Humidity | Pressure | Rain* | Wind** | Luminosity | Snow |
|---|---|---|---|---|---|---|---|
| 1777749612 | 12.78° C | 46% | 1013.7 hPa | 0 mm | - | - | - |
| 1777749013 | 12.78° C | 45% | 1013.8 hPa | 0 mm | - | - | - |
| 1777748413 | 13.33° C | 45% | 1013.8 hPa | 0 mm | - | - | - |
| 1777747812 | 13.33° C | 44% | 1014 hPa | 0 mm | - | - | - |
| 1777747213 | 13.33° C | 42% | 1014.1 hPa | 0 mm | - | - | - |
| 1777746613 | 13.33° C | 44% | 1014.2 hPa | 0 mm | - | - | - |
| 1777746013 | 13.33° C | 44% | 1014.3 hPa | 0 mm | - | - | - |
| 1777745413 | 13.33° C | 43% | 1014.4 hPa | 0 mm | - | - | - |
| 1777744813 | 13.33° C | 43% | 1014.2 hPa | 0 mm | - | - | - |
| 1777744212 | 13.33° C | 44% | 1014.3 hPa | 0 mm | - | - | - |
| 1777743613 | 12.78° C | 44% | 1014.2 hPa | 0 mm | - | - | - |
| 1777743014 | 12.22° C | 44% | 1014.3 hPa | 0 mm | - | - | - |
| 1777742412 | 12.78° C | 43% | 1014.2 hPa | 0 mm | - | - | - |
| 1777741813 | 12.78° C | 43% | 1014.5 hPa | 0 mm | - | - | - |
| 1777741213 | 13.33° C | 44% | 1014.4 hPa | 0 mm | - | - | - |
| 1777740613 | 12.22° C | 47% | 1014.4 hPa | 0 mm | - | - | - |
| 1777740013 | 12.22° C | 43% | 1014.5 hPa | 0 mm | - | - | - |
| 1777739413 | 13.89° C | 42% | 1014.7 hPa | 0 mm | - | - | - |
| 1777738813 | 13.33° C | 48% | 1014.8 hPa | 0 mm | - | - | - |
| 1777738213 | 13.33° C | 49% | 1015 hPa | 0 mm | - | - | - |
| 1777737613 | 12.78° C | 52% | 1015 hPa | 0 mm | - | - | - |
| 1777737012 | 12.22° C | 49% | 1015.1 hPa | 0 mm | - | - | - |
| 1777736413 | 12.22° C | 52% | 1014.9 hPa | 0 mm | - | - | - |
| 1777735812 | 12.22° C | 51% | 1015.2 hPa | 0 mm | - | - | - |
| 1777735213 | 11.67° C | 51% | 1015.2 hPa | 0 mm | - | - | - |
* Rain latest hour (hover to see other rain measurements)
** Current wind speed in m/s (hover to see current wind gust speed)